GW7436 Weather Reports


time (UTC)temp
F
wind
direction
speed
knots
gust
knots
rain 1hr
in
rain 24hr
in
rain mn
in
humidity
%
barometer
mb
20260906112515 72 37 0.9 2.6 0.00 0.00 0.00 97 985.6
20260906111515 72 39 3.5 5.2 0.00 0.00 0.00 97 985.6
20260906110515 72 55 0.9 2.6 0.00 0.00 0.00 97 985.5
20260906105515 72 41 2.6 4.3 0.00 0.00 0.00 97 985.5
20260906104515 71 39 1.7 3.5 0.00 0.00 0.00 97 985.5
20260906103515 71 36 3.5 6.1 0.00 0.00 0.00 97 985.4
20260906102515 71 30 2.6 4.3 0.00 0.00 0.00 97 985.3
20260906101530 71 26 2.6 3.5 0.00 0.00 0.00 97 985.2
20260906100515 71 42 1.7 2.6 0.00 0.00 0.00 96 985.0
20260906095515 71 39 2.6 3.5 0.00 0.00 0.00 96 985.0
20260906094515 71 58 1.7 3.5 0.00 0.00 0.00 96 984.9
20260906093515 71 3 1.7 2.6 0.00 0.00 0.00 96 985.0
20260906092515 71 63 0.9 1.7 0.00 0.00 0.00 95 984.9
20260906091530 71 23 1.7 2.6 0.00 0.00 0.00 96 984.8
20260906090515 71 9 1.7 1.7 0.00 0.00 0.00 96 984.8
20260906085530 71 20 0.0 1.7 0.00 0.00 0.00 96 984.7
20260906084515 71 15 0.9 1.7 0.00 0.00 0.00 97 984.7
20260906083530 71 23 0.9 1.7 0.00 0.00 0.00 97 984.7
20260906082515 70 14 0.9 1.7 0.00 0.00 0.00 98 984.7
20260906081515 70 43 0.9 1.7 0.00 0.00 0.00 98 984.7
20260906080515 70 351 0.9 1.7 0.00 0.00 0.00 97 984.7
20260906075530 70 356 0.9 1.7 0.00 0.00 0.00 97 984.6
20260906074515 71 21 1.7 1.7 0.00 0.00 0.00 96 984.8
20260906073515 71 0 0.0 0.0 0.00 0.00 0.00 95 984.8
20260906072515 72 350 0.0 0.0 0.00 0.00 0.00 95 984.9
20260906071530 72 241 0.9 1.7 0.00 0.00 0.00 95 984.8
20260906070515 73 28 0.9 1.7 0.00 0.00 0.00 92 984.8
20260906065530 73 0 0.0 0.0 0.00 0.00 0.00 92 984.8
20260906064515 73 298 0.0 0.9 0.00 0.00 0.00 91 984.9
20260906063515 74 63 0.9 1.7 0.00 0.00 0.00 91 984.9
20260906062530 74 38 1.7 1.7 0.00 0.00 0.00 91 984.9
20260906061516 74 49 1.7 2.6 0.00 0.00 0.00 91 985.0
20260906060515 74 22 1.7 1.7 0.00 0.00 0.00 92 985.0
20260906055525 74 55 0.0 0.9 0.00 0.00 0.00 91 985.1
20260906054515 73 84 1.7 2.6 0.00 0.00 0.00 92 985.0
20260906053515 72 80 1.7 1.7 0.00 0.00 0.00 94 985.0
20260906052515 72 41 1.7 2.6 0.00 0.00 0.00 95 985.1
20260906051530 72 324 0.0 0.9 0.00 0.00 0.00 94 985.1
20260906050515 73 0 0.0 0.0 0.00 0.00 0.00 93 985.0
20260906045530 73 43 0.9 1.7 0.00 0.00 0.00 94 985.0
20260906044530 73 68 0.9 1.7 0.00 0.00 0.00 93 985.0
20260906043515 73 57 0.9 1.7 0.00 0.00 0.00 94 984.9
20260906042515 73 90 0.0 1.7 0.00 0.00 0.00 92 984.9
20260906041515 74 151 0.0 0.9 0.00 0.00 0.00 92 984.9
20260906040515 74 0 0.0 0.0 0.00 0.00 0.00 91 985.1
20260906035530 74 260 0.9 1.7 0.00 0.05 0.00 90 985.1
20260906034515 75 0 0.0 0.0 0.00 0.05 0.00 88 984.6
20260906033515 75 217 0.0 0.9 0.00 0.05 0.00 87 984.5
20260906032515 75 62 0.9 1.7 0.00 0.05 0.00 87 984.5
20260906031530 73 38 1.7 3.5 0.00 0.05 0.00 91 984.4
20260906030515 73 20 1.7 1.7 0.00 0.05 0.00 93 984.2
20260906025515 73 0 0.0 0.0 0.00 0.05 0.00 93 984.3
20260906024515 73 347 0.0 0.0 0.00 0.05 0.00 93 984.4
20260906023530 73 306 0.0 0.0 0.00 0.05 0.00 93 984.4
20260906022515 73 0 0.0 0.0 0.00 0.05 0.00 93 984.5
20260906021515 73 0 0.0 0.0 0.00 0.05 0.00 93 984.3
20260906020530 73 0 0.0 0.9 0.00 0.05 0.00 94 984.1
20260906015515 74 0 0.0 0.0 0.00 0.05 0.00 93 984.0
20260906014515 74 13 0.9 1.7 0.02 0.05 0.00 91 984.1
20260906013515 75 44 0.0 0.9 0.02 0.05 0.00 90 984.1
20260906012530 75 87 1.7 1.7 0.02 0.05 0.00 86 983.8
20260906011530 76 0 0.0 0.0 0.02 0.05 0.00 89 983.6
20260906010515 77 42 1.7 1.7 0.02 0.05 0.00 84 983.5
20260906005515 79 331 0.9 1.7 0.00 0.05 0.00 79 983.5
20260906004515 79 287 0.9 1.7 0.00 0.04 0.00 74 983.7
20260906003515 79 207 0.0 0.9 0.00 0.03 0.00 73 983.6
20260906002515 80 295 0.9 1.7 0.00 0.03 0.00 73 983.6
20260906001515 80 233 0.0 0.0 0.00 0.03 0.00 71 983.8
20260906000530 82 178 1.7 2.6 0.00 0.03 0.00 69 983.9
20260905235515 84 185 1.7 2.6 0.00 0.03 0.00 65 984.2
20260905234515 85 251 0.9 1.7 0.00 0.03 0.00 63 984.2
20260905233515 86 272 0.9 1.7 0.00 0.03 0.00 64 984.2
20260905232515 88 221 0.0 0.9 0.00 0.03 0.00 67 984.1
20260905231530 88 32 0.0 0.9 0.00 0.03 0.00 62 984.1
20260905230515 89 106 0.9 1.7 0.00 0.03 0.00 63 984.0
20260905225515 91 46 0.0 0.9 0.00 0.03 0.00 60 983.9
20260905224515 93 41 0.9 1.7 0.00 0.03 0.00 58 983.7
20260905223515 92 6 0.9 1.7 0.00 0.03 0.00 56 983.7
20260905222515 92 27 0.9 1.7 0.00 0.03 0.00 57 983.6
20260905221530 91 47 1.7 1.7 0.00 0.03 0.00 57 983.6
20260905220515 91 30 0.9 1.7 0.00 0.03 0.00 59 983.7
20260905215530 92 47 1.7 3.5 0.00 0.03 0.00 57 983.7
20260905214515 92 12 2.6 2.6 0.00 0.03 0.00 55 983.8
20260905213515 93 350 1.7 1.7 0.00 0.03 0.00 51 983.9
20260905212515 94 29 2.6 3.5 0.00 0.03 0.00 54 983.8
20260905211530 95 35 3.5 5.2 0.00 0.03 0.00 52 983.8
20260905210515 94 27 1.7 2.6 0.00 0.03 0.00 49 983.8
20260905205515 94 350 2.6 3.5 0.00 0.03 0.00 49 983.9
20260905204515 95 354 1.7 3.5 0.00 0.03 0.00 47 984.0
20260905203515 94 22 0.9 2.6 0.00 0.03 0.00 49 984.1
20260905202515 93 354 1.7 2.6 0.00 0.03 0.00 49 984.2
20260905201515 93 332 2.6 4.3 0.00 0.03 0.00 50 984.3
20260905200515 93 209 2.6 3.5 0.00 0.03 0.00 50 984.5
20260905195530 93 206 1.7 3.5 0.00 0.03 0.00 50 984.6
20260905194530 93 216 1.7 4.3 0.00 0.03 0.00 53 984.8
20260905193515 92 321 1.7 3.5 0.00 0.03 0.00 52 984.9
20260905192515 92 14 2.6 3.5 0.00 0.03 0.00 53 985.0
20260905191515 92 277 0.9 1.7 0.00 0.03 0.00 50 985.1
20260905190515 92 285 1.7 3.5 0.00 0.03 0.00 51 985.3
20260905185515 92 274 0.9 1.7 0.00 0.03 0.00 50 985.3
20260905184515 92 276 2.6 3.5 0.00 0.03 0.00 51 985.4
20260905183530 91 221 1.7 3.5 0.00 0.03 0.00 53 985.5
20260905182515 91 261 2.6 5.2 0.00 0.03 0.00 54 985.7
20260905181515 91 2 1.7 1.7 0.00 0.03 0.00 52 985.8
20260905180515 91 258 0.9 1.7 0.00 0.03 0.00 51 985.9
20260905175531 90 187 1.7 3.5 0.00 0.03 0.00 49 985.9
20260905174515 90 187 1.7 3.5 0.00 0.03 0.00 51 986.0
20260905173515 90 198 3.5 4.3 0.00 0.03 0.00 53 986.1
20260905172515 90 158 2.6 3.5 0.00 0.03 0.00 51 986.1
20260905171515 89 165 3.5 5.2 0.00 0.03 0.00 55 986.2
20260905170515 89 189 3.5 5.2 0.00 0.03 0.00 55 986.4
20260905165515 88 125 0.9 2.6 0.00 0.03 0.00 54 986.6
20260905164515 88 221 1.7 3.5 0.00 0.03 0.00 58 986.8
20260905163515 87 133 3.5 5.2 0.00 0.03 0.00 55 986.9
20260905162515 86 151 1.7 4.3 0.00 0.03 0.00 56 986.8
20260905161530 86 172 1.7 3.5 0.00 0.03 0.00 62 986.8
20260905160515 86 172 3.5 5.2 0.00 0.03 0.00 61 986.8
20260905155515 85 167 1.7 4.3 0.00 0.03 0.00 60 986.8
20260905154515 85 163 2.6 5.2 0.00 0.03 0.00 61 986.8
20260905153515 83 144 1.7 3.5 0.00 0.03 0.00 63 986.9
20260905152515 83 141 4.3 7.0 0.00 0.03 0.00 63 986.8
20260905151515 82 133 2.6 4.3 0.00 0.03 0.00 65 987.0
20260905150515 81 139 3.5 4.3 0.00 0.03 0.00 66 987.1
20260905145515 80 154 3.5 5.2 0.00 0.03 0.00 69 987.1
20260905144515 80 129 2.6 3.5 0.00 0.03 0.00 70 987.3
20260905143515 79 117 4.3 6.1 0.00 0.03 0.00 70 987.4
20260905142530 78 111 4.3 7.0 0.00 0.03 0.00 72 987.5
20260905141515 78 101 2.6 4.3 0.00 0.03 0.00 75 987.5
20260905140515 78 97 3.5 6.1 0.00 0.03 0.00 73 987.7
20260905135515 78 73 3.5 5.2 0.02 0.03 0.00 74 987.9
20260905134530 77 87 3.5 4.3 0.02 0.03 0.00 76 987.8
20260905133515 76 69 3.5 7.0 0.02 0.03 0.00 79 987.5
20260905132515 74 89 5.2 7.0 0.02 0.03 0.00 84 987.6
20260905131515 74 75 5.2 7.8 0.02 0.03 0.00 88 987.6
20260905130530 74 64 3.5 6.1 0.02 0.03 0.00 89 988.1
20260905125515 74 53 4.3 5.2 0.00 0.03 0.00 87 988.2
20260905124515 73 4 0.9 2.6 0.00 0.01 0.00 88 988.3
20260905123515 73 56 2.6 3.5 0.00 0.01 0.00 87 988.2
20260905122515 72 44 3.5 4.3 0.00 0.01 0.00 90 988.2
20260905121515 72 171 1.7 3.5 0.00 0.01 0.00 91 987.1
20260905120515 72 190 2.6 3.5 0.00 0.01 0.00 90 987.3
20260905115515 72 42 1.7 1.7 0.00 0.01 0.00 90 987.1
20260905114515 72 0 0.0 0.0 0.00 0.01 0.00 89 987.0
20260905113515 73 87 0.9 1.7 0.00 0.01 0.00 89 986.8